STARLINK-4709, 53778

Orbit data source: Space-Track

STARLINK-4709, 53778 is a payload satellite owned by SpaceX/Seattle (US) in LEO that was launched on Sun, 11 Sep 2022 UTC via an FALCON 9 launch vehicle from the Air Force Eastern Test Range (AFETR). Payload-class satellites include a variety of spacecraft equipped with specific instruments for various scientific and technological missions. These include communications satellites like Starlink; space stations such as the ISS; scientific satellites like the Hubble; Earth observation satellites from companies like Planet Labs, Umbra, and HawkEye 360; GPS; miniature CubeSats for education and research; and military/defense satellites.

Loading next visibility...
Identifier
53778, 2022-111F
Orbit
LEO
Country
Flag of USUS
Related business
Manufacturer
SpaceX/Seattle
Mission
Operational Commercial Communications
Bus & Motor
STARLINK, Unknown motor
Mass
305 kg wet, ~290 kg dry
Launch date (UTC)
2022-09-11 (3 years ago)
Launch vehicle
FALCON 9
Launch site
Air Force Eastern Test Range (AFETR)
Object type
Payload
Rocket body
Debris
Shape & HBR
Box + 1 Pan, 10.1 m
Radar Cross Section
13.562 m², Large (>1 m²)

Expand to show TLE details & history
Last TLE update: 14 hours ago

TLE from 14 hours ago
0 STARLINK-4709
1 53778U 22111F   25286.52920966  .00000690  00000-0  61415-4 0  9995
2 53778  53.2187 219.4746 0001592  83.0050 277.1123 15.08847078171419
Epoch: 2025-10-13T12:42Z
TLE epoch observation values (Epoch: 2025-10-13T12:42:03.714Z)
Latitude
-0.00005°
Longitude
6.62841°
Altitude
540.483 km
Speed
7.593 km/s
True Right ascension
14h 37m 53s
True Declination
0° 00' 00"
Sunlit
Object was in daylight at epoch
Visualization orbit readout
Latitude
Unknown
Longitude
Unknown
Altitude
Unknown
Speed
Unknown
Apparent Right ascension
Unknown
Apparent Declination
Unknown
Sunlit
N/A
Visualization observer readout
Local Sidereal Time
21:24:32
Azimuth
Unknown
Elevation
Unknown
Doppler factor
Unknown
Orbital elements
Apogee altitude
541.068 km
Perigee altitude
538.865 km
Semi-major axis
6,918.103 km
Eccentricity
0.00016
Inclination
53.2187°
RAAN
219.4746°
Arg. of periapsis
83.005°
True anomaly
277.0942°
Mean anomaly
277.1123°
Eccentric anomaly
277.10325°
Mean motion
3.77192 °/min
Orbital period
95.44 mins
BSTAR
0.000061415
Loading maneuver chart data...
Computing Atmospheric mass density...
Loading historical data...
Loading historical data...
Loading historical data...
Loading historical data...
Loading historical data...
Loading historical data...
Loading historical data...

Documentation

Showing up to 5 results
|